Location: Bennemühlen
(52.5740°N, 9.7135°E)
Time: 06:08:21
(UTC+00:00)

A-11 Canister half - Pass Details

Date: 25 February 2026
Orbit: 1512 x 1687 km, 47.2° (Epoch: 5 March)

Event Time Altitude Azimuth Distance (km) Brightness Sun altitude
Rises 21:54:00 0° 270° (W) 4,941 12.0 -41.8°
Reaches altitude 10° 21:57:14 10° 268° (W) 3,945 11.4 -42.0°
Enters shadow 22:02:47 37° 255° (WSW) 2,400 9.9 -42.5°
Maximum altitude 22:07:09 63° 191° (S) 1,817 - -42.8°
Drops below altitude 10° 22:16:47 10° 113° (ESE) 3,833 - -43.5°
Sets 22:19:52 0° 111° (ESE) 4,794 - -43.7°
